[[{"header":{"parameterUnit":"m.s-1","parameterCategory":1,"la1":30.2991,"la2":30.254,"lo1":-89.0895,"lo2":-89.0444,"dy":0.0017,"dx":0.0017,"nx":28,"ny":28,"refTime":"2024-12-10T09:00:00:Z","depth":0,"parameterNumber":2,"parameterNumberName":"U-component_of_WINDS"},"data":[0,0,0,0,0,0,0,0,0,0,0,0,0,0,0,0,0,0,0,0,0,0,0,0,0,0,0,0,0,0,0,0,0,0,0,0,0,0,0,0,0,0,0,0,0,0,0,0,0,0,0,0,0,0,0,0,0,0,-0.2967,-0.2966,0,-0.2883,-0.2882,-0.2881,-0.2864,-0.2865,-0.2866,-0.2866,-0.2779,-0.2776,-0.2773,0,0,0,0,0,0,0,0,0,0,0,0,0,-0.311,-0.3107,-0.2967,-0.2966,-0.2965,-0.2883,-0.2882,-0.2881,-0.2864,-0.2865,-0.2866,-0.2867,-0.278,-0.2776,-0.2773,0,0,0,0,0,0,0,0,0,0,0,0,0,-0.3039,-0.3106,-0.2967,-0.2947,-0.2944,-0.2884,-0.2882,-0.2881,-0.2864,-0.2865,-0.2866,-0.2867,-0.2781,-0.2777,-0.2772,-0.2726,0,0,-0.2759,-0.2757,0,0,0,0,0,0,0,0,-0.3043,-0.3034,-0.2951,-0.2948,-0.2945,-0.2885,-0.2901,-0.2829,-0.2864,-0.2894,-0.2866,-0.2867,-0.2813,-0.2806,-0.2788,-0.2722,-0.2718,-0.2758,-0.2756,-0.2754,-0.2753,0,0,0,0,0,0,0,-0.3048,-0.3037,-0.2934,-0.295,-0.2946,-0.2941,-0.2932,-0.2887,-0.2849,-0.2892,-0.289,-0.2881,-0.2812,-0.2793,-0.2786,-0.2717,-0.2759,-0.2755,-0.2752,-0.275,-0.2606,-0.2605,0,0,0,0,0,0,-0.3057,-0.3042,-0.2936,-0.2931,-0.2997,-0.2938,-0.2928,-0.2903,-0.285,-0.2843,-0.288,-0.288,-0.28,-0.2791,-0.2783,-0.2724,-0.2754,-0.275,-0.2747,-0.2607,-0.2606,-0.2605,0,0,0,0,0,0,-0.306,-0.3048,-0.294,-0.2986,-0.2972,-0.2934,-0.2907,-0.2901,-0.2882,-0.2841,-0.2834,-0.2868,-0.28,-0.2789,-0.274,-0.2721,-0.2748,-0.2744,-0.2609,-0.2607,-0.2605,-0.2606,0,0,0,0,0,0,-0.3064,-0.3049,-0.3031,-0.2986,-0.297,-0.2899,-0.2906,-0.2899,-0.2875,-0.2874,-0.2827,-0.282,-0.28,-0.2747,-0.2736,-0.2715,-0.274,-0.261,-0.2608,-0.2606,-0.2608,-0.2605,-0.2602,0,0,0,0,0,-0.3069,-0.3035,-0.3031,-0.3018,-0.2947,-0.2898,-0.2888,-0.2866,-0.2873,-0.2855,-0.2828,-0.2822,-0.2725,-0.2742,-0.2729,-0.2707,-0.2611,-0.2609,-0.2606,-0.2609,-0.2605,-0.2602,0,0,0,0,0,0,-0.3079,-0.3028,-0.3023,-0.2973,-0.294,-0.2895,-0.2871,-0.2863,-0.2827,-0.2828,-0.2801,-0.2791,-0.2743,-0.272,-0.274,-0.2659,-0.2668,-0.2663,-0.2675,-0.2671,-0.2669,-0.2674,-0.2737,0,0,0,0,0,-0.3075,-0.304,-0.2998,-0.2958,-0.2941,-0.2909,-0.2887,-0.2873,-0.2837,-0.2823,-0.2793,-0.2758,-0.2719,-0.2694,-0.2657,-0.2605,-0.2594,-0.2584,-0.2581,-0.2579,-0.2574,-0.2544,-0.2538,-0.2596,-0.2596,-0.2596,0,0,-0.3067,-0.3035,-0.3015,-0.2959,-0.2931,-0.2895,-0.2897,-0.2859,-0.2831,-0.2817,-0.2768,-0.2745,-0.2704,-0.2653,-0.2629,-0.2633,-0.2556,-0.2575,-0.2574,-0.257,-0.2541,-0.2535,-0.253,-0.2594,-0.2594,-0.2595,0,0,-0.3033,-0.3006,-0.2969,-0.2942,-0.29,-0.2879,-0.287,-0.2826,-0.281,-0.2762,-0.275,-0.2716,-0.2651,-0.2622,-0.2598,-0.2553,-0.2545,-0.2542,-0.2527,-0.2497,-0.2493,-0.2489,-0.2471,-0.2465,-0.2537,-0.2537,-0.2537,0,-0.3028,-0.2973,-0.2951,-0.2912,-0.2888,-0.2874,-0.2835,-0.281,-0.2758,-0.2741,-0.2746,-0.2663,-0.2634,-0.2576,-0.2565,-0.2547,-0.2535,-0.2546,-0.2495,-0.2491,-0.2487,-0.247,-0.2463,-0.2537,-0.2537,-0.2537,-0.2537,0,-0.2968,-0.293,-0.2905,-0.2855,-0.2828,-0.279,-0.2761,-0.2736,-0.2724,-0.2702,-0.2652,-0.2618,-0.2572,-0.2558,-0.2546,-0.2497,-0.25,-0.2501,-0.251,-0.2481,-0.2465,-0.2458,-0.2537,-0.2537,-0.2537,-0.2537,0,0,-0.2937,-0.2876,-0.2867,-0.2844,-0.2797,-0.2767,-0.2728,-0.2684,-0.2662,-0.2627,-0.2593,-0.2538,-0.2537,-0.2511,-0.2496,-0.247,-0.2435,-0.2474,-0.2472,-0.2466,-0.2378,-0.2377,-0.237,-0.243,-0.2429,-0.2428,-0.2381,0,-0.2897,-0.2827,-0.2806,-0.2746,-0.271,-0.2696,-0.2662,-0.2629,-0.2608,-0.2573,-0.2549,-0.251,-0.2514,-0.2497,-0.2472,-0.2445,-0.2417,-0.2448,-0.2397,-0.2395,-0.2406,-0.2361,-0.236,-0.2317,-0.2374,-0.2373,-0.2373,0,-0.284,-0.2804,-0.2741,-0.2698,-0.2682,-0.2652,-0.2609,-0.2577,-0.2539,-0.2525,-0.2495,-0.2482,-0.244,-0.2452,-0.2393,-0.2415,-0.2392,-0.2376,-0.2374,-0.2367,-0.2381,-0.2352,-0.2303,-0.2296,-0.2362,-0.2363,-0.2364,0,-0.2822,-0.2758,-0.2712,-0.2692,-0.2641,-0.262,-0.2598,-0.2561,-0.2536,-0.2498,-0.2481,-0.244,-0.2417,-0.2385,-0.236,-0.2372,-0.2302,-0.2313,-0.2288,-0.2289,-0.2273,-0.2274,-0.2219,-0.2261,-0.2261,-0.2262,-0.2262,0,-0.2778,-0.274,-0.2703,-0.2674,-0.2631,-0.2607,-0.2564,-0.2541,-0.2508,-0.2474,-0.246,-0.2428,-0.2399,-0.2363,-0.2343,-0.2296,-0.2286,-0.2273,-0.2268,-0.2273,-0.2275,-0.2257,-0.2259,-0.226,-0.226,-0.2261,-0.2261,0,-0.275,-0.2724,-0.2673,-0.2629,-0.2616,-0.2586,-0.2548,-0.2519,-0.2497,-0.2455,-0.2443,-0.2408,-0.2365,-0.2338,-0.2283,-0.227,-0.2218,-0.2215,-0.2231,-0.2228,-0.2205,-0.2207,-0.2135,-0.2124,-0.2175,-0.2175,-0.2175,0,-0.2724,-0.2694,-0.2646,-0.2623,-0.26,-0.2563,-0.2537,-0.2512,-0.2485,-0.2439,-0.2416,-0.2372,-0.2336,-0.2268,-0.2237,-0.2195,-0.2189,-0.2167,-0.2183,-0.2189,-0.2187,-0.2189,-0.2185,-0.2164,-0.2164,-0.2163,-0.2163,0,-0.2678,-0.2667,-0.263,-0.2588,-0.2558,-0.2524,-0.249,-0.2471,-0.2441,-0.2411,-0.2367,-0.2339,-0.2283,-0.2239,-0.2194,-0.217,-0.2161,-0.2159,-0.215,-0.2155,-0.2165,-0.2158,-0.2223,-0.216,-0.216,-0.2161,-0.2161,-0.2161,-0.2649,-0.2622,-0.2584,-0.2543,-0.2515,-0.2483,-0.2454,-0.2428,-0.2391,-0.2344,-0.2332,-0.2285,-0.2247,-0.2186,-0.2161,-0.2124,-0.2127,-0.2115,-0.2112,-0.2109,-0.2108,-0.2172,-0.2116,-0.2116,-0.2116,-0.2116,-0.2116,0,-0.2602,-0.2577,-0.254,-0.2493,-0.246,-0.2455,-0.2417,-0.239,-0.235,-0.2315,-0.228,-0.2229,-0.2186,-0.2152,-0.2108,-0.2085,-0.2079,-0.2074,-0.2074,-0.2069,-0.2109,-0.212,-0.2079,-0.2079,-0.2079,-0.2079,-0.2079,-0.2079,-0.2574,-0.2526,-0.251,-0.2448,-0.2423,-0.2378,-0.2356,-0.2327,-0.2299,-0.2243,-0.2207,-0.2186,-0.2151,-0.2104,-0.2064,-0.2055,-0.2039,-0.2034,-0.2024,-0.2062,-0.2066,-0.207,-0.208,-0.2031,-0.2031,-0.1987,-0.1987,-0.1987]},{"header":{"parameterUnit":"m.s-1","parameterCategory":1,"la1":30.2991,"la2":30.254,"lo1":-89.0895,"lo2":-89.0444,"dy":0.0017,"dx":0.0017,"nx":28,"ny":28,"refTime":"2024-12-10T09:00:00:Z","depth":0,"parameterNumber":3,"parameterNumberName":"V-component_of_WINDS"},"data":[0,0,0,0,0,0,0,0,0,0,0,0,0,0,0,0,0,0,0,0,0,0,0,0,0,0,0,0,0,0,0,0,0,0,0,0,0,0,0,0,0,0,0,0,0,0,0,0,0,0,0,0,0,0,0,0,0,0,3.5388,3.5389,0,3.5516,3.5518,3.5519,3.5535,3.5533,3.5532,3.5531,3.5661,3.5666,3.567,0,0,0,0,0,0,0,0,0,0,0,0,0,3.5155,3.5159,3.5387,3.5389,3.5391,3.5516,3.5518,3.5519,3.5535,3.5533,3.5532,3.553,3.566,3.5665,3.5671,0,0,0,0,0,0,0,0,0,0,0,0,0,3.5267,3.516,3.5387,3.5414,3.5417,3.5516,3.5518,3.552,3.5535,3.5533,3.5531,3.553,3.5658,3.5665,3.5672,3.5752,0,0,3.5693,3.5696,0,0,0,0,0,0,0,0,3.526,3.5275,3.5408,3.5412,3.5416,3.5507,3.5483,3.5598,3.5536,3.549,3.5531,3.5529,3.5612,3.5622,3.565,3.5758,3.5764,3.5694,3.5698,3.5701,3.5703,0,0,0,0,0,0,0,3.5252,3.527,3.5438,3.541,3.5415,3.5419,3.5432,3.5505,3.556,3.5494,3.5496,3.5511,3.5613,3.5644,3.5654,3.5766,3.5693,3.57,3.5704,3.5707,3.5948,3.595,0,0,0,0,0,0,3.524,3.5263,3.5434,3.5442,3.5332,3.5424,3.544,3.548,3.5559,3.5569,3.5512,3.5511,3.5633,3.5645,3.5658,3.5759,3.5701,3.5707,3.5711,3.5946,3.5948,3.5951,0,0,0,0,0,0,3.5235,3.5255,3.5429,3.5353,3.5376,3.543,3.5475,3.5484,3.5514,3.5573,3.5582,3.5533,3.5632,3.5648,3.5729,3.5764,3.571,3.5717,3.5943,3.5946,3.5949,3.5961,0,0,0,0,0,0,3.5228,3.5253,3.5285,3.5354,3.538,3.5498,3.5477,3.5487,3.5526,3.5526,3.5595,3.5605,3.5632,3.5719,3.5736,3.5773,3.5722,3.594,3.5944,3.5948,3.5958,3.5965,3.597,0,0,0,0,0,3.522,3.5282,3.5286,3.5307,3.542,3.55,3.5515,3.5545,3.5529,3.5561,3.5599,3.5603,3.5757,3.5727,3.5747,3.5786,3.5938,3.5943,3.5948,3.5955,3.5963,3.597,0,0,0,0,0,0,3.5216,3.5292,3.5297,3.5384,3.5436,3.5503,3.5544,3.5552,3.5609,3.5607,3.5641,3.5656,3.5736,3.5768,3.5734,3.5868,3.5846,3.5855,3.5845,3.5853,3.5859,3.585,3.5728,0,0,0,0,0,3.5225,3.5284,3.5347,3.5418,3.5443,3.5489,3.5525,3.5544,3.5599,3.562,3.5664,3.5717,3.5777,3.5816,3.5875,3.5962,3.5978,3.5999,3.6005,3.6009,3.6018,3.6067,3.6078,3.5967,3.5967,3.5967,0,0,3.5245,3.5293,3.5329,3.5418,3.546,3.5521,3.5508,3.5572,3.5617,3.563,3.571,3.5743,3.5804,3.5889,3.5928,3.5919,3.6051,3.6016,3.6019,3.6025,3.6073,3.6084,3.6093,3.597,3.597,3.5969,0,0,3.5312,3.5354,3.5419,3.5461,3.5525,3.5556,3.5571,3.5637,3.566,3.574,3.5752,3.5805,3.5909,3.5952,3.5988,3.6071,3.6077,3.6089,3.6122,3.617,3.6178,3.6186,3.6218,3.6228,3.6096,3.6096,3.6097,0,3.5329,3.5421,3.545,3.5515,3.5554,3.5569,3.5634,3.5674,3.5754,3.5781,3.5768,3.5899,3.5941,3.6036,3.6057,3.6084,3.6103,3.6082,3.6175,3.6183,3.6191,3.6221,3.6233,3.6098,3.6098,3.6097,3.6097,0,3.5438,3.5502,3.5546,3.5624,3.5668,3.5732,3.5772,3.5812,3.5827,3.5858,3.594,3.599,3.606,3.6084,3.6098,3.6182,3.6174,3.6168,3.6146,3.6202,3.6231,3.6243,3.6099,3.6099,3.6099,3.6098,0,0,3.5509,3.5602,3.5618,3.5654,3.5725,3.5775,3.584,3.5909,3.5944,3.5997,3.6054,3.614,3.6135,3.6175,3.6194,3.6236,3.6301,3.6225,3.6227,3.6239,3.6398,3.6404,3.6417,3.6304,3.6307,3.6309,3.6393,0,3.5586,3.5703,3.5732,3.5832,3.5892,3.5906,3.5962,3.6012,3.6043,3.6098,3.6131,3.6193,3.618,3.6205,3.6247,3.6284,3.6334,3.6278,3.6358,3.636,3.6344,3.6432,3.6438,3.6516,3.6405,3.6407,3.6408,0,3.5692,3.575,3.5856,3.5921,3.5947,3.5997,3.6063,3.6115,3.6172,3.6191,3.6236,3.6251,3.6319,3.6292,3.6387,3.6349,3.6382,3.6405,3.6409,3.642,3.6389,3.6446,3.6541,3.6553,3.6426,3.6424,3.6423,0,3.5735,3.5839,3.5917,3.5946,3.6023,3.6058,3.6092,3.6147,3.6186,3.6243,3.627,3.6333,3.6368,3.6417,3.6449,3.6426,3.6542,3.6517,3.656,3.656,3.6586,3.6584,3.669,3.6604,3.6604,3.6603,3.6603,0,3.582,3.5885,3.5937,3.5985,3.6058,3.609,3.6161,3.6195,3.6243,3.6298,3.6313,3.6364,3.6401,3.6457,3.6482,3.6558,3.6573,3.6591,3.6597,3.6591,3.6589,3.6615,3.6611,3.6607,3.6606,3.6605,3.6605,0,3.5882,3.5919,3.6005,3.607,3.6088,3.6139,3.6195,3.6242,3.6272,3.6341,3.6359,3.6407,3.6474,3.651,3.6593,3.6609,3.6694,3.6696,3.6676,3.6679,3.6721,3.6717,3.6849,3.6868,3.6767,3.6768,3.6769,0,3.5935,3.5986,3.6056,3.6094,3.6129,3.6189,3.623,3.6262,3.6304,3.6373,3.6411,3.6479,3.6535,3.664,3.6682,3.6746,3.6751,3.6793,3.6761,3.6753,3.6754,3.6752,3.6758,3.6799,3.68,3.6801,3.6801,0,3.6026,3.6041,3.61,3.6165,3.6213,3.6266,3.6318,3.6348,3.6389,3.6435,3.6503,3.6547,3.6632,3.6699,3.6766,3.68,3.6808,3.6811,3.6824,3.682,3.6807,3.6816,3.6693,3.6808,3.6807,3.6807,3.6806,3.6806,3.6086,3.6132,3.619,3.6254,3.6297,3.6345,3.6393,3.6429,3.6487,3.656,3.6574,3.6647,3.6702,3.6793,3.6829,3.6886,3.6878,3.6897,3.6903,3.6908,3.6911,3.6795,3.6898,3.6898,3.6898,3.6898,3.6898,0,3.618,3.6217,3.6276,3.6349,3.64,3.6402,3.646,3.6502,3.6566,3.6617,3.6672,3.6751,3.6816,3.6862,3.6929,3.6966,3.6971,3.6982,3.6981,3.6989,3.6913,3.6896,3.6977,3.6977,3.6977,3.6977,3.6977,3.6977,3.6234,3.6313,3.6335,3.6435,3.6472,3.6544,3.6577,3.6621,3.6662,3.675,3.6804,3.6834,3.6884,3.6953,3.7013,3.7025,3.705,3.7061,3.7073,3.7002,3.6994,3.6986,3.697,3.7065,3.7065,3.7145,3.7145,3.7146]}]]